Regional Weather Roundup
Issued by NWS Jackson, KY

Home | Current Version | Previous Version | Text Only | Print | Product List | Glossary Off
Versions: 1 2 3 4 5 6 7 8 9 10 11 12 13 14 15 16 17 18 19 20 21 22 23 24 25 26 27 28 29 30 31 32 33 34 35 36 37 38 39 40 41 42 43 44 45 46 47 48 49 50

000
ASUS43 KJKL 221810
RWRJKL

EAST KENTUCKY HOURLY WEATHER ROUNDUP
NATIONAL WEATHER SERVICE JACKSON KY
200 PM EDT FRI MAY 22 2015

NOTE: "FAIR" INDICATES FEW OR NO CLOUDS BELOW 12,000 FEET WITH
NO SIGNIFICANT WEATHER AND/OR OBSTRUCTIONS TO VISIBILITY.

* THESE REPORTS ARE NOT UNDER NWS QUALITY CONTROL AND MAY NOT
  REPORT WEATHER SUCH AS PRECIPITATION AND FOG.

KYZ079-080-083-085-087-088-110-112-115-119-120-221900
...EASTERN KENTUCKY...

CITY           SKY/WX    TMP DP  RH WIND       PRES   REMARKS
JACKSON        MOSUNNY   63  45  51 CALM      30.28F
6HR MIN TEMP:  44; 6HR MAX TEMP:  65;

LONDON         SUNNY     68  39  34 NW6       30.28F
6HR MIN TEMP:  43; 6HR MAX TEMP:  69;

SOMERSET*      SUNNY     64  43  45 N5        30.30S
MONTICELLO*    SUNNY     68  45  43 VRB5      30.31F
6HR MIN TEMP:  44; 6HR MAX TEMP:  69;

MIDDLESBORO*   SUNNY     66  46  49 NE6       30.28F
6HR MIN TEMP:  46; 6HR MAX TEMP:  67;

HARLAN APT*    CLEAR     66  41  39 CALM      30.28S
HAZARD APT*    CLEAR     66  43  42 SW5       30.28F
BLACK MTN*       N/A     57  43  58 N7          N/A
PIKEVILLE APT* MOSUNNY   64  46  52 NW3       30.28
BIG SANDY*     PTCLDY    65  47  52 SW6       30.28S
6HR MIN TEMP:  46; 6HR MAX TEMP:  65;

MOREHEAD APT*  CLEAR     68  43  40 SW7G15    30.28F
$$

KYZ035-036-041-042-044-050-067-078-099-221900
...CENTRAL KENTUCKY...

CITY           SKY/WX    TMP DP  RH WIND       PRES   REMARKS
MT STERLING*   SUNNY     68  43  40 W8        30.28F
FLEMING/MASON* MOSUNNY   70  45  40 SW9G17    30.25
DANVILLE*      SUNNY     68  41  37 SW3       30.28F
RICHMOND*      SUNNY     68  43  40 CALM      30.27F
LEXINGTON      SUNNY     69  43  38 SW8       30.26F
6HR MIN TEMP:  48; 6HR MAX TEMP:  69;

FRANKFORT      SUNNY     71  42  35 S10       30.25F
6HR MIN TEMP:  48; 6HR MAX TEMP:  71;

$$

KYZ091>093-OHZ055-061-077-WVZ005-015-034-035-042-221900
...SOUTHERN OHIO/WEST VIRGINIA...

CITY           SKY/WX    TMP DP  RH WIND       PRES   REMARKS
COVINGTON      MOSUNNY   71  47  42 SW12G18   30.22S
COLUMBUS       PTSUNNY   67  47  48 NW7       30.17F
DAYTON         MOSUNNY   71  48  43 W13G22    30.19F
WILMINGTON     MOSUNNY   71  41  33 SW16G24   30.20S
HUNTINGTON     MOSUNNY   69  42  37 VRB3      30.23F
CHARLESTON     MOSUNNY   67  42  40 W6        30.23F
PINEVILLE*     PTSUNNY   65  48  53 MISG      30.31F
BECKLEY        SUNNY     62  40  44 W10G18    30.26S
BLUEFIELD      MOSUNNY   61  42  49 NW9       30.28S
$$

VAZ002-007-008-TNZ017-027-036-066-071-221900
...SOUTHWEST VIRGINIA/EAST TENNESSEE...

CITY           SKY/WX    TMP DP  RH WIND       PRES   REMARKS
WISE*          SUNNY     61  36  39 NW5       30.30F
JONESVILLE*    CLEAR     64  41  42 W3        30.29F
ABINGDON*      SUNNY     64  42  44 NW3       30.28S
BRISTOL        MOSUNNY   68  39  34 NW6       30.27F
KNOXVILLE      MOSUNNY   68  41  37 MISG      30.25F
OAK RIDGE      SUNNY     71  38  29 VRB5      30.27F
CROSSVILLE     SUNNY     64  40  41 VRB5      30.29S
NASHVILLE      MOSUNNY   71  44  37 NE5       30.28F
$$

...KEY TO REMARKS...
VSB - VISIBILITY IN MILES
WCI - WIND CHILL INDEX
HX  - HEAT INDEX

$$



USA.gov is the U.S. government's official web portal to all federal, state and local government web resources and services.